Location: Carter Cabin
(41.0271°N, 122.9339°W)
Time: 15:43:09
(UTC+00:00)

ALOS - Pass Details

Date: 13 April 2024
Orbit: 674 x 675 km, 98.0° (Epoch: 22 May)

Event Time Altitude Azimuth Distance (km) Brightness Sun altitude
Rises 12:37:38 0° 349° (N) 3,041 5.8 -11.1°
Reaches altitude 10° 12:42:14 10° 307° (NW) 2,118 4.5 -10.3°
Maximum altitude 12:42:44 10° 300° (WNW) 2,106 4.4 -10.2°
Drops below altitude 10° 12:43:14 10° 294° (WNW) 2,116 4.4 -10.1°
Enters shadow 12:44:26 - 280° (W) 2,225 4.4 -9.9°
